User: anonymous   Login
Location: ???????
(55.5931°N, 39.3286°E)
Time: 16:42:42
(UTC+00:00)
Language:

Cosmos 921 Rocket - Orbit

View from above orbital plane
View from above orbital plane
View from above satellite
View from above satellite

Ground track
Ground track

The orbit data is extracted from the following two-line orbital elements,

1 10096U 77055B   24165.93508668  .00000877  00000-0  90849-4 0  9999
2 10096  75.8323 140.9892 0041425 180.1018 180.0173 14.90350498542109
Epoch (UTC): 13 June 2024 22:26:31
Eccentricity: 0.0041425
inclination: 75.8323°
perigee height: 568 km
apogee height: 626 km
right ascension of ascending node: 140.9892°
argument of perigee: 180.1018°
revolutions per day: 14.90350498
mean anomaly at epoch: 180.0173°
orbit number at epoch: 54210

The dashed part of the orbit path shows where the satellite is in the earth's shadow,  

DLR